Location: Vihti�l�
(61.3833°N, 23.0667°E)
Time: 03:40:41
(UTC+00:00)

Timation 1 Rocket - Pass Details

Date: 29 November 2020
Orbit: 896 x 910 km, 70.0° (Epoch: 19 January)

Event Time Altitude Azimuth Distance (km) Brightness Sun altitude
Exits shadow 03:38:33 46° 240° (WSW) 1,213 4.6 -23.3°
Maximum altitude 03:40:27 79° 317° (NW) 934 4.2 -23.0°
Drops below altitude 10° 03:46:31 10° 46° (NE) 2,609 7.3 -22.3°
Sets 03:49:02 0° 47° (NE) 3,554 8.1 -22.0°
